User: anonymous   Login
Location: Cluny
(50.9333°N, 112.8167°W)
Time: 02:50:03
(UTC-06:00)
Language:

Cosmos 1743 Rocket - Orbit

View from above orbital plane
View from above orbital plane
View from above satellite
View from above satellite

Ground track
Ground track

The orbit data is extracted from the following two-line orbital elements,

1 16720U 86034B   18111.94857392 +.00000088 +00000-0 +77002-5 0  9993
2 16720 082.5518 313.6326 0020740 158.8412 315.0767 14.83330251703945
Epoch (UTC): 21 April 2018 22:45:56
Eccentricity: 0.0020740
inclination: 82.5518°
perigee height: 604 km
apogee height: 633 km
right ascension of ascending node: 313.6326°
argument of perigee: 158.8412°
revolutions per day: 14.83330251
mean anomaly at epoch: 315.0767°
orbit number at epoch: 70394

The dashed part of the orbit path shows where the satellite is in the earth's shadow,  

DLR